Regional Weather Roundup
Issued by NWS

Home | Current Version | Previous Version | Text Only | Print | Product List | Glossary On
Versions: 1 2 3 4 5 6 7 8 9 10 11 12 13 14 15 16 17 18 19 20 21 22 23 24 25 26 27
000
ASUS45 KPSR 280610
RWRAZ

ARIZONA HOURLY REGIONAL WEATHER ROUNDUP
NATIONAL WEATHER SERVICE PHOENIX AZ
1100 PM MST SUN MAY 27 2018

NOTE: FAIR INDICATES FEW OR NO CLOUDS BELOW 12,000 FEET WITH NO
SIGNIFICANT WEATHER AND/OR OBSTRUCTIONS TO VISIBILITY.

AZZ001>003-036-280700-
NORTHWEST ARIZONA

CITY           SKY/WX    TMP DP  RH WIND       PRES   REMARKS
BULLHEAD CITY  PTCLDY    84  32  15 N7        29.77R
KINGMAN        MOCLDY    70  28  21 S10       29.93R
$$

AZZ004>008-015-016-018-280700-
NORTH CENTRAL ARIZONA

CITY           SKY/WX    TMP DP  RH WIND       PRES   REMARKS
GRAND CANYON   MOCLDY    46  19  34 CALM      30.08R
6HR MIN TEMP:  46; 6HR MAX TEMP:  70;

WILLIAMS       CLOUDY    57  25  28 SW10      30.09R
PRESCOTT       CLEAR     61  28  28 SW5       30.02R
6HR MIN TEMP:  61; 6HR MAX TEMP:  76;

FLAGSTAFF      CLEAR     51  25  36 W3        30.12S
6HR MIN TEMP:  47; 6HR MAX TEMP:  67;

PAYSON         CLEAR     61  23  23 CALM      30.03S
PAGE           CLEAR     70  30  22 W7        29.93R
6HR MIN TEMP:  70; 6HR MAX TEMP:  81;

$$

AZZ009>014-017-280700-
NORTHEAST ARIZONA

CITY           SKY/WX    TMP DP  RH WIND       PRES   REMARKS
WINSLOW        CLEAR     60  23  24 SW8       29.98S
6HR MIN TEMP:  60; 6HR MAX TEMP:  82;

SAINT JOHNS    CLEAR     59  18  20 SW10      30.03S
6HR MIN TEMP:  58; 6HR MAX TEMP:  80;

WINDOW ROCK    CLEAR     54  13  19 S3        30.08R
6HR MIN TEMP:  52; 6HR MAX TEMP:  77;

SHOW LOW       CLEAR     54  23  30 S9        30.10S
$$

AZZ540-542>544-546-548-280700-
GREATER PHOENIX AREA

CITY           SKY/WX    TMP DP  RH WIND       PRES   REMARKS
PHOENIX        PTCLDY    83  34  17 CALM      29.77S
6HR MIN TEMP:  82; 6HR MAX TEMP:  91;

BUCKEYE        CLEAR     75  28  17 W5        29.79S
LUKE AFB       CLEAR     77  38  25 CALM      29.77S
6HR MIN TEMP:  77; 6HR MAX TEMP:  91;

DEER VALLEY    CLEAR     74  28  18 CALM      29.80R
6HR MIN TEMP:  74; 6HR MAX TEMP:  89;

SCOTTSDALE     CLEAR     80  37  21 CALM      29.81S
6HR MIN TEMP:  79; 6HR MAX TEMP:  91;

MESA-GATEWAY   PTCLDY    79  34  19 NW3       29.81S
$$

AZZ539-553-280700-
SOUTHWEST MARICOPA COUNTY AND PINAL COUNTY

CITY           SKY/WX    TMP DP  RH WIND       PRES   REMARKS
CASA GRANDE    CLEAR     78  32  18 NW7       29.82S
6HR MIN TEMP:  78; 6HR MAX TEMP:  91;

GILA BEND      FAIR      77  26  15 S8        29.78R
6HR MIN TEMP:  76; 6HR MAX TEMP:  93;

$$

AZZ503-504-507>509-280700-
SOUTHEAST ARIZONA

CITY           SKY/WX    TMP DP  RH WIND       PRES   REMARKS
TUCSON         CLEAR     75  28  17 NW3       29.90S
6HR MIN TEMP:  75; 6HR MAX TEMP:  93;

DAVIS-MONTHAN  CLEAR     74  30  20 W6        29.89
6HR MIN TEMP:  74; 6HR MAX TEMP:  92;

NOGALES        CLEAR     63  25  23 E5        29.97R
6HR MIN TEMP:  63; 6HR MAX TEMP:  89;

SIERRA VISTA   CLEAR     64  20  18 W12       30.01S
6HR MIN TEMP:  63; 6HR MAX TEMP:  87;

DOUGLAS        CLEAR     66  20  17 N10       29.97S
6HR MIN TEMP:  64; 6HR MAX TEMP:  91;

SAFFORD        CLEAR     74  23  15 NW8       29.87R
6HR MIN TEMP:  74; 6HR MAX TEMP:  93;

$$

AZZ532-280700-
SOUTHWEST ARIZONA

CITY           SKY/WX    TMP DP  RH WIND       PRES   REMARKS
YUMA           CLEAR     78  43  28 SW6       29.78R
6HR MIN TEMP:  78; 6HR MAX TEMP:  92;

$$

CAZ041-043-047-048-061-525>527-560>570-280700-
SOUTHERN CALIFORNIA

CITY           SKY/WX    TMP DP  RH WIND       PRES   REMARKS
DOWNTOWN L.A.  NOT AVBL
L.A. AIRPORT   PTCLDY    60  55  83 W6        29.96R
6HR MIN TEMP:  59; 6HR MAX TEMP:  66;

SAN DIEGO      CLOUDY    63  55  75 CALM      29.98R
6HR MIN TEMP:  63; 6HR MAX TEMP:  69;

BURBANK        CLEAR     59  52  77 SE6       29.95R
6HR MIN TEMP:  59; 6HR MAX TEMP:  73;

ONTARIO        CLEAR     60  52  74 W7        29.95R
6HR MIN TEMP:  60; 6HR MAX TEMP:  77;

RIVERSIDE      CLEAR     62  54  74 NW3       29.95R
6HR MIN TEMP:  60; 6HR MAX TEMP:  77;

PALM SPRINGS   CLEAR     79  50  36 NW15      29.81R
6HR MIN TEMP:  79; 6HR MAX TEMP:  96;

EL CENTRO NAS  CLEAR     77  45  32 W12       29.78R
6HR MIN TEMP:  77; 6HR MAX TEMP:  93;

IMPERIAL       CLEAR     74  49  41 W10       29.76R
6HR MIN TEMP:  73; 6HR MAX TEMP:  93;

BLYTHE         CLEAR     83  40  21 W9        29.76R
6HR MIN TEMP:  83; 6HR MAX TEMP:  93;

NEEDLES        CLEAR     87  33  14 W7        29.78R
6HR MIN TEMP:  86; 6HR MAX TEMP:  96;

$$

NVZ020-UTZ003-280700-
SOUTHERN NEVADA-UTAH

CITY           SKY/WX    TMP DP  RH WIND       PRES   REMARKS
LAS VEGAS      PTCLDY    77  39  25 S6        29.85R
6HR MIN TEMP:  77; 6HR MAX TEMP:  87;

SALT LAKE CITY PTCLDY    59  52  77 SE5       30.04F
$$

NMZ009-TXZ055-280700-
NEW MEXICO-WEST TEXAS

CITY           SKY/WX    TMP DP  RH WIND       PRES   REMARKS
ALBUQUERQUE    PTCLDY    74  13   9 SW10      29.98R
6HR MIN TEMP:  73; 6HR MAX TEMP:  88;

EL PASO        PTCLDY    84   8   5 NW5       29.87R
6HR MIN TEMP:  84; 6HR MAX TEMP:  95;

$$


........................KEY........................
SKY/WX - SKY CONDITION/WEATHER
TMP    - TEMPERATURE IN FAHRENHEIT
DP     - DEW POINT IN FAHRENHEIT
RH     - RELATIVE HUMIDITY IN PERCENT
WIND   - DIRECTION AND SPEED IN MILES PER HOUR (MPH)
VRB    - VARIABLE WIND DIRECTION
PRES   - MEAN SEA LEVEL PRESSURE IN INCHES OF MERCURY
         F - FALLING PRESSURE   R - RISING PRESSURE
         S - STEADY PRESSURE
VSB    - VISIBILITY IN MILES
HX     - HEAT INDEX IN FAHRENHEIT
WCI    - WIND CHILL INDEX IN FAHRENHEIT
TC     - TEMPERATURE IN CELSIUS WHICH IS ALSO KNOWN AS
         TEMPERATURE IN CENTIGRADE
AFB    - AIR FORCE BASE
         LUKE AFB IS LUKE AIR FORCE BASE
         DAVIS-MONTHAN IS DAVIS-MONTHAN AIR FORCE BASE
NAS    - NAVAL AIR STATION
         EL CENTRO NAS IS EL CENTRO NAVAL AIR STATION
N/A    - NOT AVAILABLE





USA.gov is the U.S. government's official web portal to all federal, state and local government web resources and services.